Orbital Elements at Epoch 2459200.5 (2020-Dec-17.0) TDB
Reference: JPL 21 (heliocentric ecliptic J2000)
Element | Value | Uncertainty (1-sigma) | Units |
e | .0361938891907115 | 3.9862e-08 | |
a | 2.58051477858483 | 1.4546e-08 | au |
q | 2.487115912633738 | 1.0452e-07 | au |
i | 7.696163393433824 | 4.5264e-06 | deg |
node | 66.88020893345595 | 3.9288e-05 | deg |
peri | 358.1447919402992 | 9.0249e-05 | deg |
M | 25.74702244203594 | 8.1939e-05 | deg |
tp | 2459092.211468675775 (2020-Aug-30.71146868) | 0.00034438 | TDB |
period | 1514.111830386804 4.15 | 1.2802e-05 3.505e-08 | d yr |
n | .2377631511590741 | 2.0103e-09 | deg/d |
Q | 2.673913644535923 | 1.5072e-08 | au |
|
| | Orbit Determination Parameters
Additional Information
|